Presure
115 144 141 151 137 124 131 116 133 149 159 186 131 132 130 138 140 193 195 188 176 180 176 190 191 171 188 183 161 242 156 160 191 192 166 163 181 189 185 152 160 164 160 154 159 163 172 182 165
137 120 141 125 133 117 149 119 156 141 150 200 104 130 130 143 143 158 197 188 187 188 154 178 174 195 182 197 185 90 203 96 137 155 154 153 159 167 160 158 174 169 169 162 154 158 155 167 163
137 110 112 113 150 106 118 117 140 145 161 165 126 125 125 139 131 143 178 200 181 189 159 183 195 192 193 187 188 185 94 171 90 176 172 170 165 169 171 169 169 161 160 165 164 161 159 153 151
132 110 134 116 151 139 154 119 139 145 139 165 133 156 131 138 142 137 183 179 197 172 156 172 162 133 122 134 196 192 171 88 85 172 164 171 166 162 170 174 170 175 175 175 175 196 162 146 150
140 139 138 109 122 107 138 144 111 133 158 157 150 140 136 129 138 136 183 193 171 158 160 138 177 182 143 205 149 190 185 185 172 173 176 159 163 156 171 187 179 172 178 180 178 183 176 160 160
115 125 110 128 128 130 144 129 131 131 154 144 145 130 133 126 132 131 166 186 175 159 169 137 202 147 197 157 185 194 193 190 179 177 168 164 168 160 180 161 176 161 190 183 178 202 175 180 181
128 128 111 116 147 140 133 129 144 150 150 151 148 152 144 125 130 129 133 173 180 173 150 151 190 182 198 210 215 200 187 182 185 188 176 186 176 179 174 163 164 178 171 196 192 190 183 182 189
136 130 125 104 148 149 137 121 143 149 138 134 155 155 142 123 125 132 128 130 190 158 165 194 211 213 213 193 256 214 238 208 202 190 157 151 155 183 155 151 156 163 161 186 171 199 199 193 195
126 134 133 124 146 138 146 122 143 135 146 156 148 148 140 154 126 132 176 156 177 168 152 144 170 206 265 283 258 244 223 165 139 166 182 161 163 181 190 185 162 224 211 194 174 179 176 184 183
125 123 123 139 154 106 127 145 129 150 130 143 138 152 143 151 149 133 126 177 179 161 155 162 186 171 219 291 208 140 177 175 179 187 181 150 169 207 163 152 230 174 214 205 194 193 190 187 179
139 131 130 136 114 109 147 128 132 144 146 147 142 141 128 143 157 156 126 183 176 169 165 158 151 176 172 231 249 204 188 191 152 178 173 173 170 163 271 261 254 233 180 153 190 201 181 192 182
125 132 114 139 105 143 139 137 145 129 142 140 153 131 122 137 156 138 158 149 174 176 169 143 168 158 169 176 220 259 196 219 204 200 184 169 167 250 275 166 165 182 180 185 184 151 192 194 199
146 122 139 134 150 170 113 130 147 122 143 147 145 132 141 133 139 144 146 152 154 179 171 152 141 158 176 170 195 188 212 295 193 191 194 179 184 182 260 170 236 204 186 193 201 207 207 186 198
137 135 140 138 125 139 146 121 140 141 140 139 138 138 138 144 145 145 136 140 142 152 160 178 161 147 172 179 174 196 224 218 317 195 194 194 181 186 176 243 218 157 167 221 211 159 157 161 160
126 123 139 132 121 136 120 132 132 141 142 138 141 142 144 141 128 137 137 129 140 150 159 154 160 161 153 197 171 161 190 199 222 170 223 197 197 184 181 179 167 173 240 208 163 171 169 162 156
126 129 139 123 125 122 126 130 152 122 111 131 133 131 133 140 137 140 143 146 150 149 150 152 153 153 161 148 215 198 163 174 209 186 190 217 194 191 184 183 181 170 171 168 164 162 162 162 159
132 127 140 136 147 129 127 120 132 136 127 132 133 135 124 135 140 136 143 141 137 149 143 147 153 152 156 158 169 197 204 191 186 197 164 245 209 194 187 181 178 168 174 170 165 166 154 158 155
120 123 132 143 151 126 121 120 140 132 133 138 124 130 124 134 135 126 129 135 130 132 141 166 144 143 150 143 129 151 129 183 202 183 231 221 167 214 194 160 164 173 179 175 171 167 166 163 168
135 133 133 152 162 141 126 148 129 127 142 128 120 135 125 134 133 133 123 140 140 124 143 140 168 137 179 156 143 145 172 142 131 211 214 238 224 285 219 199 166 101 174 180 175 175 169 167 169
131 134 132 143 138 124 161 128 124 130 134 133 141 129 121 134 128 137 139 129 141 140 137 126 155 151 157 143 161 151 139 138 133 136 223 191 160 181 164 168 181 212 207 187 191 186 179 179 180
137 130 140 146 150 154 151 129 135 132 129 149 130 132 126 139 135 131 136 124 139 141 129 126 127 150 146 145 161 160 178 157 140 136 136 179 217 188 244 176 124 155 187 236 219 205 165 174 182
137 136 135 155 126 157 136 132 131 153 131 134 136 148 138 130 131 135 129 133 130 140 135 129 132 139 129 133 128 148 147 151 161 136 172 142 161 177 191 302 150 163 188 188 133 200 214 159 198
135 116 130 148 152 135 167 135 174 132 154 135 142 131 143 123 138 131 127 132 133 127 135 131 120 122 132 135 147 139 149 156 151 151 140 151 136 172 161 178 170 154 141 143 137 148 224 167 94
139 134 138 120 147 154 132 162 140 147 140 145 139 133 144 139 138 121 130 131 132 134 126 130 131 131 135 123 131 148 130 146 158 153 151 136 128 139 137 159 177 159 167 181 146 153 161 244 141
144 134 131 141 145 121 159 136 121 143 129 164 140 138 123 167 138 130 133 133 135 136 134 128 127 131 120 132 127 146 129 128 144 133 156 160 145 133 149 131 127 142 141 156 162 173 151 152 217
91 140 137 141 121 130 150 132 139 124 140 167 146 131 139 159 131 131 128 141 132 130 140 123 129 125 132 121 128 130 127 133 131 138 152 156 151 148 139 133 133 132 139 126 140 127 160 170 146
151 142 143 141 142 137 131 146 117 144 147 172 140 134 136 123 132 141 139 142 129 133 135 137 122 124 127 127 128 133 122 122 132 124 139 147 144 132 144 145 135 130 118 142 132 125 143 150 143
147 135 133 143 140 118 148 151 160 128 149 171 142 141 174 157 136 142 126 129 132 138 131 142 145 125 119 125 128 130 123 142 131 131 129 141 158 133 161 147 145 143 141 141 130 124 140 149 140
140 133 148 131 104 145 111 132 165 135 144 153 149 149 176 147 161 156 133 125 130 138 129 132 141 132 139 123 123 125 132 122 140 124 122 116 126 132 133 132 146 150 133 133 135 133 137 145 127
157 159 137 150 140 141 151 143 90 145 158 132 178 119 188 145 146 160 148 146 134 125 131 129 126 135 128 136 114 122 146 141 116 131 116 127 122 124 126 144 125 132 155 140 139 135 131 135 140
Wind_Speed
14 8 12 17 13 13 13 16 17 24 28 33 17 19 18 20 25 34 25 22 21 21 19 15 14 12 2 4 3 9 8 10 34 32 14 13 18 20 19 17 23 27 31 28 29 27 30 27 40
11 12 10 11 14 13 18 12 31 18 22 39 15 17 18 24 29 34 29 28 23 20 26 17 16 12 10 4 3 29 5 25 20 13 13 13 15 14 21 22 16 24 25 29 25 21 26 29 29
11 14 11 13 11 26 12 15 15 18 29 29 14 13 16 23 18 32 36 27 26 20 25 21 16 14 8 7 2 7 25 12 29 13 15 13 12 9 13 16 18 25 28 28 29 29 31 24 20
13 12 12 10 12 15 17 12 13 17 16 31 17 25 19 22 26 29 33 34 22 29 25 25 26 22 24 25 4 10 6 23 25 11 11 9 5 5 5 11 9 17 22 24 25 27 33 8 19
5 5 3 11 7 16 12 12 14 11 27 26 22 19 20 20 24 28 35 30 29 28 29 23 26 22 21 6 22 6 9 8 11 9 10 7 8 5 4 6 3 3 6 13 19 21 33 30 32
13 10 8 10 6 7 13 9 9 8 22 18 20 17 19 19 22 25 33 33 30 29 28 24 19 18 16 21 15 5 5 5 4 4 7 5 5 1 5 6 4 2 12 11 10 14 19 22 25
10 9 11 7 4 10 8 7 8 18 20 22 20 25 22 19 21 23 28 33 31 33 27 31 29 23 15 14 8 6 8 10 7 4 4 5 5 9 8 5 1 5 2 5 8 10 14 14 14
8 9 8 9 4 7 1 7 6 15 7 9 24 26 20 16 18 22 24 25 31 32 37 33 26 23 19 21 4 8 1 1 3 13 15 13 9 2 3 4 4 1 1 3 0 5 8 6 6
14 11 6 6 3 2 1 8 7 2 15 24 20 22 18 29 16 22 37 31 35 37 31 27 40 30 19 13 15 17 14 18 22 23 19 18 11 11 15 5 5 7 5 1 1 2 3 2 2
19 15 13 4 4 9 4 2 9 12 12 16 13 22 19 25 27 20 21 37 37 33 32 38 40 41 27 20 26 25 21 16 25 27 35 17 16 24 11 6 7 2 5 2 4 3 0 1 1
21 17 13 8 12 7 6 1 7 8 13 15 13 17 15 21 31 35 19 40 36 35 34 34 33 41 41 33 26 19 14 12 20 23 20 7 13 15 7 5 12 15 11 2 8 3 1 2 1
24 18 18 10 10 6 9 4 8 3 8 11 19 11 12 18 29 20 38 37 40 37 36 29 39 39 41 40 32 30 20 20 8 17 18 23 17 12 11 8 8 8 4 3 10 10 2 2 2
28 27 18 16 7 10 13 8 8 5 9 17 15 8 17 16 19 25 33 38 39 38 36 33 28 38 40 41 37 30 26 20 18 6 10 12 15 17 20 14 24 23 9 6 5 5 5 7 8
30 26 20 23 23 11 12 10 9 9 10 7 8 13 18 20 23 24 23 31 33 39 42 39 38 33 39 40 40 39 32 28 19 22 11 13 15 21 23 22 19 13 10 12 14 12 15 15 16
33 33 23 28 29 15 22 10 15 9 10 9 8 14 20 17 17 21 23 19 30 36 41 41 41 41 38 39 38 39 36 35 33 28 15 19 20 23 25 24 20 22 21 18 17 18 15 15 21
37 34 27 33 31 30 24 20 13 14 5 10 9 6 12 17 18 22 23 27 31 32 38 40 41 41 42 39 39 37 43 40 36 32 30 23 26 24 25 26 24 22 21 20 17 18 18 16 19
38 38 30 34 33 32 30 25 20 18 14 10 10 7 4 14 17 21 23 25 28 31 33 38 39 41 43 36 42 43 38 36 36 38 37 29 23 29 27 27 25 24 18 17 16 16 25 22 23
36 41 39 35 34 35 32 29 24 22 19 16 11 9 7 7 15 7 17 22 23 25 27 35 34 36 40 36 23 42 27 45 33 38 37 32 29 25 27 33 30 26 19 14 17 17 14 15 12
45 39 43 41 40 39 34 36 29 27 19 19 13 15 11 10 12 13 5 21 22 19 25 26 36 29 35 44 32 39 46 39 28 38 39 38 36 25 26 28 33 13 31 19 16 15 16 15 16
42 43 42 38 40 35 41 39 27 30 24 22 14 17 15 11 10 15 17 14 21 20 22 17 33 27 42 34 38 41 32 31 30 35 41 41 44 40 39 46 38 13 9 12 14 12 14 15 16
54 48 49 48 48 45 47 39 36 32 28 27 24 21 19 15 13 12 15 8 20 18 17 16 16 32 31 33 36 43 40 45 34 30 32 47 49 42 35 32 29 32 28 7 9 10 23 20 11
54 51 53 59 43 55 49 42 38 37 31 29 27 22 21 19 16 14 12 14 14 16 16 14 18 21 15 23 18 39 41 42 43 30 46 40 49 54 52 31 42 38 37 33 38 16 14 26 21
55 44 47 59 56 47 60 47 57 38 35 32 31 29 23 25 21 17 13 14 14 12 14 12 11 11 17 20 29 30 36 42 42 45 32 43 35 51 45 48 46 42 44 39 32 31 10 25 19
64 59 58 46 61 60 49 58 42 40 39 31 38 37 26 27 26 20 19 16 15 12 10 12 10 11 13 7 15 26 15 35 26 34 41 25 22 36 42 46 46 44 44 36 30 33 32 10 40
69 67 58 67 62 47 63 47 40 41 40 40 40 39 29 25 32 26 23 20 17 14 11 9 8 10 6 9 8 21 16 18 30 25 36 34 24 26 30 29 30 37 34 41 40 41 36 33 24
21 72 65 71 53 52 58 50 43 48 47 46 41 43 37 32 34 28 27 17 18 15 9 8 8 6 7 3 5 8 10 15 19 30 30 30 30 30 32 24 27 31 33 28 35 30 37 38 37
83 75 77 73 77 49 54 67 44 57 54 60 49 47 39 34 39 34 31 24 21 19 14 13 9 8 6 5 4 3 4 6 11 10 23 30 26 24 24 25 26 21 14 31 25 23 33 32 31
83 63 53 71 65 47 77 82 77 47 52 58 49 50 49 47 44 32 30 29 25 18 20 14 12 12 10 9 6 4 2 9 7 9 9 24 21 17 16 19 18 22 22 27 18 17 30 33 30
79 65 83 65 34 82 35 52 89 48 46 57 47 53 40 51 37 40 33 33 28 22 22 17 17 16 13 15 12 10 8 7 4 5 8 6 9 14 12 16 18 15 14 15 21 20 26 33 21
97 98 70 84 68 74 86 66 15 57 69 59 79 36 68 51 46 43 36 32 27 29 27 24 25 22 19 12 17 16 9 11 9 4 10 5 3 3 4 9 8 12 12 15 16 18 20 24 25
Wind_Direction
119 44 47 55 47 41 38 48 38 33 29 28 50 53 44 40 47 28 35 33 39 46 43 30 37 33 67 248 93 233 234 220 251 254 219 223 248 245 241 244 246 232 236 251 248 250 249 236 240
84 112 59 95 65 56 46 33 32 31 33 28 65 51 48 43 50 38 29 29 34 44 49 37 34 23 22 105 136 87 183 74 76 223 231 235 236 237 243 246 235 237 249 250 249 247 255 249 244
90 122 107 92 29 95 36 57 29 34 31 29 55 43 45 42 42 48 37 35 44 39 47 35 22 29 17 20 73 162 96 208 78 194 193 195 221 243 241 238 234 245 252 254 257 253 254 257 250
119 134 64 99 18 12 51 28 23 35 42 32 57 40 50 44 49 57 35 40 27 45 55 43 46 53 62 47 50 180 181 83 85 195 200 194 181 190 275 240 242 246 237 239 239 233 253 256 266
128 123 131 112 78 93 45 41 60 24 28 40 46 51 53 50 48 55 32 38 45 55 52 73 30 29 64 36 50 97 178 172 147 176 175 169 189 166 252 204 206 9 259 255 250 240 238 254 264
156 150 145 108 65 41 2 45 334 12 37 48 49 58 59 58 50 55 39 37 44 55 48 70 24 61 29 51 51 58 80 141 155 163 138 153 236 174 132 117 253 142 279 265 270 233 252 251 245
171 165 133 157 341 354 65 359 41 46 48 45 48 40 49 61 52 58 57 43 41 44 64 59 29 33 41 32 38 58 68 84 90 79 48 324 266 256 208 110 117 280 277 291 252 241 245 251 243
206 185 183 132 330 304 174 43 66 52 59 59 41 39 55 69 61 57 60 58 38 55 52 29 31 35 31 41 118 63 156 130 57 66 77 66 52 339 13 38 57 6 357 312 343 226 219 214 219
183 202 179 163 293 141 279 84 100 3 74 43 51 43 54 44 68 62 43 50 46 51 58 66 42 44 57 95 88 69 79 82 72 68 61 59 53 5 333 312 47 288 290 272 263 240 224 171 182
187 185 185 178 247 127 140 158 299 67 67 70 66 51 52 47 51 66 70 46 46 55 56 51 36 44 46 80 76 72 58 51 51 41 56 20 28 318 45 47 298 47 197 182 35 7 350 150 142
195 177 175 179 206 174 263 301 274 108 78 56 73 68 70 51 44 50 68 43 44 46 48 52 59 44 46 66 75 87 87 41 56 30 70 98 23 32 348 101 134 154 126 16 51 41 27 318 61
189 190 204 193 201 239 229 199 142 254 120 83 64 89 86 59 48 60 52 54 43 44 49 60 50 54 47 51 71 79 63 101 155 326 54 12 26 45 92 60 59 73 24 76 80 85 182 247 233
206 198 174 184 206 240 207 206 160 224 111 102 98 98 62 69 46 54 58 55 53 40 48 58 60 53 44 50 51 66 72 65 91 192 22 55 36 44 96 64 111 140 66 62 95 94 130 83 99
199 179 199 186 183 176 200 192 187 180 119 111 129 107 82 60 46 47 58 62 60 59 53 43 52 55 46 46 52 48 61 65 72 63 57 44 52 57 67 107 110 72 75 133 113 77 67 73 73
188 198 191 193 203 201 205 183 200 157 142 145 123 106 94 74 97 56 52 60 62 63 55 60 55 50 53 41 51 58 45 50 58 57 81 49 58 60 66 73 72 75 124 104 67 76 71 61 47
195 195 198 203 200 203 196 196 177 191 196 182 163 149 108 92 81 64 47 50 61 64 67 63 60 57 52 59 44 41 55 46 45 52 50 60 50 58 62 66 66 60 67 75 69 63 52 48 36
202 195 210 206 204 195 194 208 203 197 194 188 175 145 195 103 85 81 56 55 59 62 71 72 64 61 58 58 55 42 43 40 38 47 52 71 63 55 63 67 63 60 52 59 65 66 49 39 40
216 209 210 210 221 206 214 212 206 202 204 188 207 198 206 120 106 122 97 66 76 65 65 51 74 75 67 76 67 63 73 51 44 50 57 61 69 73 64 60 63 43 42 41 51 47 46 19 9
213 209 212 223 216 206 217 202 199 202 206 200 218 167 203 141 126 111 147 72 58 83 62 71 47 65 45 64 76 72 53 70 69 52 56 64 64 85 81 65 59 68 20 9 37 50 32 24 5
216 216 212 205 220 225 218 209 223 205 202 202 207 204 230 169 175 113 94 113 67 65 71 67 61 52 63 77 55 70 76 73 73 67 60 57 56 60 63 66 72 92 339 17 1 49 38 30 14
216 213 221 223 228 225 225 211 210 216 210 218 199 209 205 168 164 157 118 165 83 72 92 82 70 69 65 66 58 53 55 51 72 71 66 63 62 61 76 70 64 62 55 63 41 42 51 49 47
216 217 223 222 225 228 212 212 222 225 213 214 207 213 212 207 184 166 169 133 132 90 91 94 80 68 77 74 69 60 59 56 53 70 67 64 62 62 65 69 55 54 59 58 47 55 88 56 69
218 221 221 226 226 225 231 211 239 215 202 217 206 206 200 219 175 191 197 164 136 147 109 107 109 88 76 76 61 75 61 46 54 55 63 52 62 66 57 58 55 49 47 48 41 36 81 58 72
215 221 222 226 231 228 213 226 206 207 212 215 208 205 203 209 184 229 196 187 165 148 156 128 109 91 65 54 71 56 75 50 59 58 53 58 62 60 62 57 53 53 53 57 45 48 51 75 46
216 220 220 225 226 223 228 224 219 209 220 242 212 209 219 225 194 202 197 192 175 170 162 163 144 122 112 49 52 61 67 68 54 65 53 50 63 65 67 71 62 66 65 53 51 51 47 55 71
208 220 219 224 218 212 231 223 214 223 218 234 204 216 207 226 212 210 210 199 197 199 191 195 180 163 130 141 58 47 55 58 64 57 50 57 51 52 47 60 62 70 58 56 59 53 49 50 43
217 221 220 221 223 218 211 233 220 221 207 244 213 215 212 228 213 211 206 204 208 203 197 197 225 216 206 174 154 72 7 7 66 82 50 54 62 72 47 57 48 65 64 55 59 55 51 54 58
221 222 221 221 224 223 228 232 229 220 215 236 213 211 246 202 216 217 217 219 208 211 217 253 254 233 250 235 224 216 237 16 35 41 71 62 49 59 35 52 53 47 47 46 65 58 45 51 50
225 225 222 221 232 224 231 225 235 215 234 221 214 210 232 210 215 213 210 228 221 221 221 225 244 242 228 246 247 237 251 246 8 315 320 355 61 68 58 55 47 46 41 38 42 44 35 34 43
219 219 227 224 227 225 227 228 202 227 236 218 242 228 248 214 217 203 206 211 226 237 228 224 230 232 220 233 254 255 263 266 255 230 288 312 306 5 57 22 43 29 20 24 30 30 25 22 23